Location: *
(38.9555°S, 57.3572°E)
Time: 01:39:14
(UTC+00:00)

Cosmos 2227 Rocket - Pass Details

Date: 15 July 2020
Orbit: 839 x 845 km, 71.0° (Epoch: 06 August)

Event Time Altitude Azimuth Distance (km) Brightness Sun altitude
Rises 14:45:34 0° 329° (NNW) 3,385 6.0 -18.7°
Reaches altitude 10° 14:48:02 10° 325° (NW) 2,458 5.3 -19.1°
Maximum altitude 14:53:37 61° 245° (WSW) 957 2.6 -20.2°
Enters shadow 14:58:46 13° 165° (SSE) 2,304 4.2 -21.2°
